Tracking 29892 objects as of 21-Nov-2024
HD Live streaming from Space Station
objects crossing your sky now

STARLINK-5585

Track STARLINK-5585 now!
10-day predictions
STARLINK-5585 is classified as:


NORAD ID: 57333
Int'l Code: 2023-099F
Perigee: 565.6 km
Apogee: 566.9 km
Inclination: 43.0 °
Period: 95.8 minutes
Semi major axis: 6937 km
RCS: Unknown
Launch date: July 16, 2023
Source: United States (US)
Launch site: AIR FORCE EASTERN TEST RANGE (AFETR)
Your satellite tracking list
Your tracking list is empty




NASA's NSSDC Master Catalog

Two Line Element Set (TLE):
1 57333U 23099F   24325.96707490  .00000014  00000-0  16082-4 0  9998
2 57333  43.0030 303.2888 0000907 267.4410  92.6328 15.02534775 75488
Source of the keplerian elements: AFSPC